Location: Newark
(49.8969°N, 3.3422°E)
Time: 00:11:23
(UTC+00:00)

Explorer 7 - Pass Details

Date: 28 January 2020
Orbit: 485 x 679 km, 50.3° (Epoch: 27 February)

Event Time Altitude Azimuth Distance (km) Brightness Sun altitude
Rises 00:25:22 0° 272° (W) 2,552 - -58.1°
Reaches altitude 10° 00:27:32 10° 273° (W) 1,669 - -58.0°
Maximum altitude 00:31:17 83° 360° (N) 497 - -57.8°
Drops below altitude 10° 00:35:06 10° 90° (E) 1,695 - -57.7°
Sets 00:37:19 0° 92° (E) 2,597 - -57.6°
